Regional Weather Roundup
Issued by NWS

Home | Current Version | Previous Version | Graphics & Text | Print | Product List | Glossary On
Versions: 1 2 3 4 5 6 7 8 9 10 11 12 13 14 15 16 17 18 19 20 21 22 23 24 25 26 27 28 29 30 31 32 33 34 35 36 37 38 39 40 41 42 43 44 45 46 47 48 49 50
000
ASUS45 KBOU 211307
RWRCO

WEATHER ROUNDUP FOR COLORADO
NATIONAL WEATHER SERVICE DENVER/BOULDER CO
700 AM MDT TUE APR 21 2015

NOTE: "FAIR" INDICATES FEW OR NO CLOUDS BELOW 12000 FEET WITH NO
SIGNIFICANT WEATHER AND/OR OBSTRUCTIONS TO VISIBILITY.

COZ001>005-013-030-031-211400-
...NORTHWEST COLORADO...

CITY           SKY/WX    TMP DP  RH WIND       PRES   REMARKS
CRAIG          CLEAR     27  24  89 SW3       30.00R
HAYDEN         CLEAR     32  25  74 E12       30.00R WCI  23
MEEKER         CLEAR     30  26  85 NE5       30.01R WCI  25
MOUNT WERNER   NOT AVBL
STEAMBOAT SPGS CLEAR     27  25  91 CALM      30.02R
WALDEN         PTCLDY    23  19  86 SE3       30.01R
$$

COZ006>008-011-211400-
...WEST CENTRAL VALLEYS...

CITY           SKY/WX    TMP DP  RH WIND       PRES   REMARKS
GRAND JUNCTION CLEAR     41  34  76 E9        29.94R
MONTROSE       CLEAR     36  28  73 S8        30.00R
EAGLE          MOCLDY    28  27  93 CALM      30.08R FOG
RIFLE          CLEAR     35  31  85 E5        30.01R WCI  31
DELTA          CLEAR     39  33  78 E3        29.99R
NUCLA          CLEAR     36  27  69 SE6       30.03R
$$

COZ017>023-064>068-211400-
...SOUTHWEST COLORADO...

CITY           SKY/WX    TMP DP  RH WIND       PRES   REMARKS
DURANGO        CLEAR     24  17  74 CALM      30.03R
CORTEZ         CLEAR     28  21  75 E6        30.00R WCI  22
PAGOSA SPRINGS CLEAR     27  18  68 CALM      30.07S
TELLURIDE      CLEAR     32  21  63 SE7       30.12R WCI  26
WOLF CREEK PAS PTCLDY    28  10  47 SW18      30.20S WCI  16
$$

COZ009-010-012-014-032>034-037-058>063-211400-
...CENTRAL COLORADO...

CITY           SKY/WX    TMP DP  RH WIND       PRES   REMARKS
ASPEN          PTCLDY    31  25  78 S6        30.03R WCI  25
BUENA VISTA    PTCLDY    27  24  87 NW5       30.05S WCI  22
COPPER MTN     NOT AVBL
BERTHOUD PASS  FAIR      19  10  68 W32G43    30.07R HAZE    WCI   0
COTTONWOOD PAS PTCLDY    34  23  64 N5        30.07R WCI  30
GUNNISON       CLEAR     25  19  80 CALM      30.12R
KREMMLING      PTCLDY    27  23  86 CALM      30.06R
LEADVILLE      PTCLDY    26  20  77 NE6       30.06R WCI  19
MONARCH PASS   PTCLDY    23  18  80 MISG      30.23R
SALIDA         PTCLDY    32  26  79 NW12      30.12R WCI  23
SUNLIGHT       CLEAR     32  27  80 CALM      30.15R
WILKERSON PASS CLEAR     23  19  86 W8G16     30.09S WCI  14
$$

COZ069>075-211400-
...SAN LUIS VALLEY/SANGRE DE CRISTO MOUNTAINS...

CITY           SKY/WX    TMP DP  RH WIND       PRES   REMARKS
ALAMOSA        PTCLDY    22  18  85 CALM      30.08R
LA VETA PASS   CLEAR     30  21  69 S13G21    30.09R WCI  20
SAGUACHE       PTCLDY    30  25  80 NW9       30.09R WCI  22
$$

COZ035-036-038>040-211400-
...NORTHERN COLORADO FRONT RANGE...

CITY           SKY/WX    TMP DP  RH WIND       PRES   REMARKS
DENVER INTL AP PTCLDY    40  31  70 SW8       29.93R
DMNS CITY PARK   N/A     41  30  65 S7        29.93S
AURORA         PTCLDY    37  30  76 S6        29.94R
FRONT RANGE AP PTCLDY    45  32  61 S9        29.93S
ERIE MUNI ARPT CLEAR     33  32  95 CALM      29.93R
BOULDER MUN AP CLEAR     37  32  81 CALM      29.93R
CENTENNIAL     PTCLDY    35  29  78 E5        29.94R WCI  31
BROOMFIELD     PTCLDY    41  30  65 CALM      29.93S
FORT COLLINS   CLEAR     37  30  75 CALM      29.94R
LONGMONT       CLEAR     37  31  79 SW3       29.94S
$$

COZ041-046-047-076>085-087-088-211400-
...PIKES PEAK/PALMER DIVIDE AND SOUTHERN FOOTHILLS...

CITY           SKY/WX    TMP DP  RH WIND       PRES   REMARKS
COLO. SPRINGS  PTCLDY    37  31  78 NW7       29.97S
A. F. ACADEMY  CLEAR     30  28  92 N8        29.97S WCI  22
ELLICOTT       CLEAR    N/A N/A N/A CALM      29.96S
FALCON         CLEAR     33  31  94 NW5       29.99R WCI  28
FORT CARSON    CLEAR     35  29  80 NW7       29.95R WCI  29
LIMON          CLOUDY    39  34  82 CALM      29.94S
MONUMENT HILL  CLEAR     32  28  86 SW6       29.96S WCI  26
TRINIDAD       CLEAR     40  32  73 SW13      29.97S
$$

COZ042>045-048>051-090-091-211400-
...NORTHEAST COLORADO...

CITY           SKY/WX    TMP DP  RH WIND       PRES   REMARKS
GREELEY ARPT   CLEAR     36  27  69 CALM      29.94R
AKRON          PTCLDY    35  32  88 W10       29.91S WCI  27
BURLINGTON     PTCLDY    38  33  82 SW6       29.92S
WRAY           CLEAR     33  31  92 SW5       29.91F WCI  29
STERLING       MOCLDY    34  32  93 S3        29.91S
HOLYOKE        CLEAR     37  32  81 N6        29.91S
FORT MORGAN    PTCLDY    35  31  85 CALM      29.93R
$$

COZ086-089-092>099-211400-
...SOUTHEAST COLORADO...

CITY           SKY/WX    TMP DP  RH WIND       PRES   REMARKS
PUEBLO         CLEAR     37  34  89 N3        29.95R
LA JUNTA       CLEAR     42  35  76 SW5       29.94S
LAMAR          CLEAR     39  37  92 SW6       29.93R
SPRINGFIELD      N/A     38  35  89 W6        29.95R
$$



USA.gov is the U.S. government's official web portal to all federal, state and local government web resources and services.